Regional Weather Roundup
Issued by NWS

Home | Current Version | Previous Version | Graphics & Text | Print | Product List | Glossary On
Versions: 1 2 3 4 5 6 7 8 9 10 11 12 13 14 15 16 17 18 19 20 21 22 23 24 25 26 27 28 29 30 31 32 33 34 35 36 37 38 39 40 41 42 43 44 45 46 47 48 49 50
000
ASUS43 KOAX 152102
RWRNE

WEATHER ROUNDUP FOR NEBRASKA
NATIONAL WEATHER SERVICE OMAHA NE
400 PM CDT TUE APR 15 2014

NOTES: SATELLITE DATA IS BEING USED TO AUGMENT CLOUD COVER ABOVE
       12000 FEET.
       "FAIR" INDICATES FEW OR NO CLOUDS BELOW 12,000 FEET WITH NO
       SIGNIFICANT WEATHER AND/OR OBSTRUCTIONS TO VISIBILITY.

  * THESE STATIONS DO NOT REPORT WEATHER SUCH AS RAIN...SNOW OR FOG.

NEZ001>004-019>022-054>056-152200-
NEBRASKA PANHANDLE

CITY           SKY/WX    TMP DP  RH WIND       PRES   REMARKS
SCOTTSBLUFF    MOSUNNY   64  23  21 W23       29.71F
ALLIANCE       PTSUNNY   63  16  16 W18       29.70F
CHADRON        MOSUNNY   64  23  21 W15       29.66F
KIMBALL        PTSUNNY   59  20  21 SW16      29.76F
SIDNEY         MOSUNNY   65  17  15 W21       29.76F
$$

NEZ057>060-069>072-079>082-152200-
SOUTHWEST NEBRASKA

CITY           SKY/WX    TMP DP  RH WIND       PRES   REMARKS
NORTH PLATTE   PTSUNNY   64  21  19 SW21G28   29.76F
IMPERIAL       PTSUNNY   65  27  23 SW13      29.79F
MCCOOK         CLOUDY    64  25  22 S22       29.81F
OGALLALA       CLOUDY    67  22  18 SW10G17   29.75F
$$

NEZ005>010-023>029-035>040-094-152200-
NORTH CENTRAL NEBRASKA

CITY           SKY/WX    TMP DP  RH WIND       PRES   REMARKS
VALENTINE      CLOUDY    66  18  15 SW15G22   29.66F
AINSWORTH      CLOUDY    62  25  24 S21       29.69F
BROKEN BOW     CLOUDY    59  26  28 S20G28    29.78F
O`NEILL        MOSUNNY   56  23  27 S26G32    29.79F
ORD            CLOUDY    55  28  35 S23G32    29.82F
THEDFORD       CLOUDY    63  22  21 SW17      29.73F
$$

NEZ041-046>049-061>064-073>077-083>087-152200-
SOUTH CENTRAL NEBRASKA

CITY           SKY/WX    TMP DP  RH WIND       PRES   REMARKS
GRAND ISLAND   PTSUNNY   59  27  29 S21G26    29.86F
AURORA         PTSUNNY   57  26  30 S17G25    29.89F
HASTINGS       PTSUNNY   61  22  22 S14G26    29.86F
HEBRON         PTSUNNY   60  18  19 S16G29    29.94F
HOLDREGE       PTSUNNY   60  26  27 SW21      29.83F
KEARNEY *      PTSUNNY   61  28  29 S22G29    29.84F
YORK           PTSUNNY   55  27  33 S18G29    29.92F
$$

NEZ011>018-030>034-042>045-152200-
NORTHEAST NEBRASKA

CITY           SKY/WX    TMP DP  RH WIND       PRES   REMARKS
NORFOLK        MOSUNNY   51  28  41 S18G32    29.89F
ALBION         PTSUNNY   54  29  37 S20G30    29.87F
BLAIR          SUNNY     49  23  35 S16G26    29.99F
COLUMBUS *     MOSUNNY   54  30  40 S20       29.94F
FREMONT        MOSUNNY   51  24  34 SE17G23   29.97F
TEKAMAH        SUNNY     51  24  34 S22       29.99F
$$

NEZ050>053-065>068-078-088>093-152200-
SOUTHEAST NEBRASKA

CITY           SKY/WX    TMP DP  RH WIND       PRES   REMARKS
LINCOLN        MOSUNNY   56  25  30 S20       29.98F
OMAHA EPPLEY   MOSUNNY   51  21  30 S18       30.01F
BEATRICE       SUNNY     57  23  26 S18       29.98F
FALLS CITY     SUNNY     53  27  36 S14G21    30.05F
NEBRASKA CITY  SUNNY     53  26  34 S15G22    30.01F
PLATTSMOUTH    SUNNY     51  22  31 S15       30.01F
$$

NEZ044-045-051>053-067-152200-
OMAHA AREA

CITY           SKY/WX    TMP DP  RH WIND       PRES   REMARKS
OMAHA EPPLEY   MOSUNNY   51  21  30 S18       30.01F
BLAIR          SUNNY     49  23  35 S16G26    29.99F
FREMONT        MOSUNNY   51  24  34 SE17G23   29.97F
MILLARD        SUNNY     50  24  36 S14G21    30.00F
OFFUTT AFB     SUNNY     52  24  33 SE17G23   30.01F
PLATTSMOUTH    SUNNY     51  22  31 S15       30.01F
WAHOO          FAIR      52  22  30 S21       29.97F
$$



USA.gov is the U.S. government's official web portal to all federal, state and local government web resources and services.